Creston, IA

12:03 AM CDT on September 22, 2017 (GMT -0500)
Creston Municipal

Weather History for KCSQ - December, 2012

Change the Weather History Date:

Wednesday, December 12, 2012

  Actual Average Record
Temperature  
Mean Temperature 36 °F -  
Max Temperature 48 °F 35 °F 63 °F (1968)
Min Temperature 23 °F 19 °F -12 °F (1962)
Degree Days  
Heating Degree Days 30    
Moisture  
Dew Point 12 °F    
Average Humidity 44    
Maximum Humidity 74    
Minimum Humidity 16    
Precipitation  
Precipitation 0.00 in - - ()
Sea Level Pressure  
Sea Level Pressure 30.05 in    
Wind  
Wind Speed 14 mph (South)    
Max Wind Speed 25 mph    
Max Gust Speed 34 mph    
Visibility 10 miles    
Events      
Averages and records for this station are not official NWS values.
T = Trace of Precipitation, MM = Missing Value Source: NWS Daily Summary

Daily Weather History Graph

Daily Weather History Graph

Search for Another Location

Airport or City:

Trip Planner

Search our weather history database for the weather conditions in past years. The results will help you decide how hot, cold, wet, or windy it might be!

Date:

Astronomy

Dec. 12, 2012 Rise Set
Actual Time 7:33 AM CST 4:49 PM CST
Civil Twilight 7:02 AM CST 5:20 PM CST
Nautical Twilight 6:27 AM CST 5:55 PM CST
Astronomical Twilight 5:54 AM CST 6:28 PM CST
Moon 6:38 AM CST (12/12) 4:27 PM CST (12/12)
Length of Visible Light 10h 18m
Length of Day
9h 15m
Waning Crescent, 1% of the Moon is Illuminated
Dec 12
Waning Crescent
Dec 13
New
Dec 19
First Quarter
Dec 28
Full
Jan 4
Last Quarter

Hourly Weather History & Observations

Time (CST) Temp. Windchill Dew Point Humidity Pressure Visibility Wind Dir Wind Speed Gust Speed Precip Events Conditions
12:15 AM 24.8 °F 15.3 °F 17.6 °F 74% 30.05 in 10.0 mi South 9.2 mph - N/A   Clear
12:35 AM 24.8 °F 14.6 °F 17.6 °F 74% 30.05 in 10.0 mi South 10.4 mph - N/A   Clear
12:55 AM 24.8 °F 14.0 °F 17.6 °F 74% 30.05 in 10.0 mi South 11.5 mph - N/A   Clear
1:15 AM 24.8 °F 14.0 °F 17.6 °F 74% 30.05 in 10.0 mi South 11.5 mph - N/A   Clear
1:35 AM 24.8 °F 14.6 °F 17.6 °F 74% 30.05 in 10.0 mi South 10.4 mph - N/A   Clear
1:55 AM 24.8 °F 16.1 °F 17.6 °F 74% 30.05 in 10.0 mi South 8.1 mph - N/A   Clear
2:15 AM 23.0 °F 13.9 °F 15.8 °F 74% 30.05 in 10.0 mi South 8.1 mph - N/A   Clear
2:35 AM 24.8 °F 15.3 °F 17.6 °F 74% 30.05 in 10.0 mi SSW 9.2 mph - N/A   Clear
2:55 AM 24.8 °F 16.1 °F 15.8 °F 69% 30.05 in 10.0 mi South 8.1 mph - N/A   Clear
3:15 AM 23.0 °F 12.4 °F 15.8 °F 74% 30.05 in 10.0 mi South 10.4 mph - N/A   Clear
3:35 AM 24.8 °F 14.6 °F 15.8 °F 69% 30.05 in 10.0 mi South 10.4 mph - N/A   Clear
3:55 AM 24.8 °F 14.6 °F 15.8 °F 69% 30.05 in 10.0 mi South 10.4 mph - N/A   Clear
4:15 AM 24.8 °F 14.6 °F 15.8 °F 69% 30.05 in 10.0 mi South 10.4 mph - N/A   Clear
4:35 AM 24.8 °F 14.0 °F 15.8 °F 69% 30.06 in 10.0 mi South 11.5 mph - N/A   Clear
4:55 AM 24.8 °F 14.0 °F 15.8 °F 69% 30.05 in 10.0 mi South 11.5 mph - N/A   Clear
5:15 AM 24.8 °F 14.0 °F 15.8 °F 69% 30.05 in 10.0 mi South 11.5 mph - N/A   Clear
5:35 AM 24.8 °F 13.4 °F 15.8 °F 69% 30.05 in 10.0 mi South 12.7 mph - N/A   Clear
5:55 AM 24.8 °F 13.4 °F 15.8 °F 69% 30.05 in 10.0 mi South 12.7 mph - N/A   Clear
6:15 AM 24.8 °F 13.4 °F 15.8 °F 69% 30.06 in 10.0 mi South 12.7 mph - N/A   Clear
6:35 AM 24.8 °F 13.4 °F 15.8 °F 69% 30.06 in 10.0 mi South 12.7 mph - N/A   Clear
6:55 AM 24.8 °F 14.0 °F 15.8 °F 69% 30.06 in 10.0 mi South 11.5 mph - N/A   Clear
7:15 AM 24.8 °F 14.0 °F 15.8 °F 69% 30.06 in 10.0 mi South 11.5 mph - N/A   Clear
7:35 AM 24.8 °F 14.0 °F 15.8 °F 69% 30.06 in 10.0 mi South 11.5 mph - N/A   Clear
7:55 AM 24.8 °F 14.0 °F 15.8 °F 69% 30.07 in 10.0 mi South 11.5 mph - N/A   Clear
8:15 AM 26.6 °F 15.2 °F 15.8 °F 64% 30.07 in 10.0 mi South 13.8 mph - N/A   Clear
8:35 AM 28.4 °F 17.0 °F 15.8 °F 59% 30.08 in 10.0 mi South 15.0 mph - N/A   Clear
8:55 AM 30.2 °F 18.9 °F 17.6 °F 60% 30.08 in 10.0 mi South 16.1 mph - N/A   Clear
9:15 AM 33.8 °F 22.8 °F 17.6 °F 52% 30.08 in 10.0 mi South 18.4 mph - N/A   Clear
9:35 AM 35.6 °F 25.2 °F 17.6 °F 48% 30.09 in 10.0 mi South 18.4 mph 24.2 mph N/A   Clear
9:55 AM 37.4 °F 27.8 °F 15.8 °F 41% 30.09 in 10.0 mi SSW 17.3 mph 25.3 mph N/A   Clear
10:15 AM 39.2 °F 29.8 °F 15.8 °F 39% 30.09 in 10.0 mi SSW 18.4 mph 24.2 mph N/A   Clear
10:35 AM 41.0 °F 31.6 °F 15.8 °F 36% 30.09 in 10.0 mi SSW 20.7 mph 25.3 mph N/A   Clear
11:15 AM 44.6 °F 36.4 °F 15.8 °F 31% 30.08 in 10.0 mi SSW 20.7 mph 26.5 mph N/A   Clear
11:35 AM 46.4 °F 38.1 °F 12.2 °F 25% 30.07 in 10.0 mi SSW 24.2 mph 31.1 mph N/A   Clear
11:55 AM 46.4 °F 38.1 °F 12.2 °F 25% 30.06 in 10.0 mi SSW 24.2 mph 29.9 mph N/A   Clear
12:15 PM 46.4 °F 37.9 °F 10.4 °F 23% 30.06 in 10.0 mi SSW 25.3 mph 31.1 mph N/A   Clear
12:35 PM 48.2 °F - 10.4 °F 22% 30.06 in 10.0 mi SSW 21.9 mph 31.1 mph N/A   Clear
12:55 PM 48.2 °F - 8.6 °F 20% 30.05 in 10.0 mi SSW 23.0 mph 34.5 mph N/A   Clear
1:15 PM 48.2 °F - 6.8 °F 19% 30.04 in 10.0 mi SSW 24.2 mph 33.4 mph N/A   Clear
1:35 PM 48.2 °F - 8.6 °F 20% 30.04 in 10.0 mi South 23.0 mph 32.2 mph N/A   Clear
1:55 PM 48.2 °F - 8.6 °F 20% 30.03 in 10.0 mi South 21.9 mph 28.8 mph N/A   Clear
2:15 PM 48.2 °F - 6.8 °F 19% 30.03 in 10.0 mi South 25.3 mph - N/A   Clear
2:35 PM 48.2 °F - 5.0 °F 17% 30.03 in 10.0 mi South 25.3 mph 29.9 mph N/A   Clear
2:55 PM 48.2 °F - 5.0 °F 17% 30.03 in 10.0 mi South 20.7 mph 27.6 mph N/A   Clear
3:15 PM 48.2 °F - 3.2 °F 16% 30.02 in 10.0 mi South 21.9 mph 26.5 mph N/A   Clear
3:35 PM 48.2 °F - 3.2 °F 16% 30.02 in 10.0 mi South 20.7 mph 28.8 mph N/A   Clear
3:55 PM 46.4 °F 38.5 °F 3.2 °F 17% 30.02 in 10.0 mi South 21.9 mph 27.6 mph N/A   Clear
4:15 PM 46.4 °F 39.5 °F 3.2 °F 17% 30.02 in 10.0 mi South 17.3 mph 28.8 mph N/A   Clear
4:35 PM 44.6 °F 37.2 °F 6.8 °F 21% 30.02 in 10.0 mi South 17.3 mph - N/A   Clear
4:55 PM 42.8 °F 35.1 °F 6.8 °F 23% 30.02 in 10.0 mi South 16.1 mph 20.7 mph N/A   Clear
5:15 PM 41.0 °F 33.5 °F 6.8 °F 24% 30.02 in 10.0 mi South 13.8 mph - N/A   Clear
5:35 PM 41.0 °F 33.9 °F 6.8 °F 24% 30.03 in 10.0 mi South 12.7 mph - N/A   Clear
5:55 PM 39.2 °F 31.2 °F 6.8 °F 26% 30.03 in 10.0 mi South 13.8 mph - N/A   Clear
6:35 PM 39.2 °F 31.2 °F 6.8 °F 26% 30.02 in 10.0 mi South 13.8 mph 19.6 mph N/A   Clear
6:55 PM 39.2 °F 30.2 °F 5.0 °F 24% 30.01 in 10.0 mi South 17.3 mph 21.9 mph N/A   Clear
7:15 PM 39.2 °F 30.5 °F 5.0 °F 24% 30.03 in 10.0 mi South 16.1 mph - N/A   Clear
7:35 PM 37.4 °F 28.5 °F 5.0 °F 26% 30.04 in 10.0 mi South 15.0 mph - N/A   Clear
7:55 PM 37.4 °F 28.9 °F 5.0 °F 26% 30.05 in 10.0 mi South 13.8 mph - N/A   Clear
8:15 PM 35.6 °F 25.9 °F 6.8 °F 30% 30.06 in 10.0 mi South 16.1 mph - N/A   Clear
8:35 PM 35.6 °F 26.2 °F 6.8 °F 30% 30.06 in 10.0 mi South 15.0 mph - N/A   Clear
8:55 PM 35.6 °F 25.9 °F 8.6 °F 33% 30.06 in 10.0 mi South 16.1 mph - N/A   Clear
9:15 PM 35.6 °F 26.2 °F 8.6 °F 33% 30.05 in 10.0 mi South 15.0 mph - N/A   Clear
9:35 PM 35.6 °F 26.2 °F 8.6 °F 33% 30.06 in 10.0 mi South 15.0 mph - N/A   Clear
9:55 PM 35.6 °F 25.9 °F 8.6 °F 33% 30.07 in 10.0 mi South 16.1 mph - N/A   Clear
10:15 PM 33.8 °F 23.5 °F 10.4 °F 38% 30.07 in 10.0 mi South 16.1 mph - N/A   Clear
10:35 PM 33.8 °F 23.9 °F 10.4 °F 38% 30.07 in 10.0 mi South 15.0 mph - N/A   Clear
10:55 PM 33.8 °F 23.9 °F 10.4 °F 38% 30.07 in 10.0 mi South 15.0 mph - N/A   Clear
11:15 PM 33.8 °F 24.8 °F 10.4 °F 38% 30.08 in 10.0 mi South 12.7 mph - N/A   Clear
11:35 PM 33.8 °F 23.9 °F 10.4 °F 38% 30.06 in 10.0 mi South 15.0 mph - N/A   Clear
11:55 PM 32.0 °F 21.6 °F 10.4 °F 41% 30.07 in 10.0 mi South 15.0 mph - N/A   Clear